Location: Morgantown
(40.9734°N, 80.6323°W)
Time: 00:18:21
(UTC+00:00)

Cosmos 292 Rocket - Pass Details

Date: 29 October 2020
Orbit: 673 x 695 km, 74.0° (Epoch: 03 December)

Event Time Altitude Azimuth Distance (km) Brightness Sun altitude
Rises 22:44:31 0° 203° (SSW) 3,022 7.7 -5.0°
Reaches altitude 10° 22:46:49 10° 205° (SSW) 2,115 6.9 -5.4°
Maximum altitude 22:51:34 72° 290° (WNW) 723 4.1 -6.3°
Drops below altitude 10° 22:56:23 10° 15° (NNE) 2,145 6.1 -7.2°
Sets 22:58:43 0° 18° (NNE) 3,068 6.8 -7.6°
